Temperatur Hangar Messungen

Zurück zum Überblick

Zeitpunkt Temperatur Luftfeuchte
21.09.2021 23:54:30 4,4 C 62,0%
21.09.2021 23:47:27 4,2 C 58,0%
21.09.2021 23:42:14 4,2 C 53,0%
21.09.2021 23:36:48 4,3 C 48,0%
21.09.2021 23:29:45 4,6 C 49,0%
21.09.2021 23:25:26 4,9 C 55,0%
21.09.2021 23:22:18 5,1 C 60,0%
21.09.2021 23:18:48 5,1 C 65,0%
21.09.2021 23:11:46 5,1 C 68,0%
21.09.2021 23:04:44 4,8 C 66,0%
21.09.2021 22:57:42 4,5 C 64,0%
21.09.2021 22:50:40 4,3 C 60,0%
21.09.2021 22:45:02 4,1 C 55,0%
21.09.2021 22:38:54 4,2 C 50,0%
21.09.2021 22:31:52 4,5 C 51,0%
21.09.2021 22:27:57 4,6 C 56,0%
21.09.2021 22:24:51 4,7 C 61,0%
21.09.2021 22:21:20 4,9 C 67,0%
21.09.2021 22:17:30 4,8 C 72,0%
21.09.2021 22:10:29 4,5 C 73,0%
21.09.2021 22:03:28 4,2 C 74,0%
21.09.2021 21:56:26 3,7 C 73,0%
21.09.2021 21:55:02 3,6 C 68,0%
21.09.2021 21:54:31 3,6 C 61,0%
21.09.2021 21:49:59 3,5 C 54,0%
21.09.2021 21:44:28 3,6 C 48,0%
21.09.2021 21:37:27 4,0 C 50,0%
21.09.2021 21:33:32 4,2 C 55,0%
21.09.2021 21:30:25 4,4 C 61,0%
21.09.2021 21:27:00 4,5 C 66,0%
21.09.2021 21:20:21 4,5 C 71,0%
21.09.2021 21:13:19 4,2 C 69,0%
21.09.2021 21:06:19 4,0 C 67,0%
21.09.2021 20:59:17 3,8 C 65,0%
21.09.2021 20:52:15 3,6 C 61,0%
21.09.2021 20:46:55 3,5 C 55,0%
21.09.2021 20:41:42 3,5 C 50,0%
21.09.2021 20:34:40 3,8 C 48,0%
21.09.2021 20:30:03 4,1 C 54,0%
21.09.2021 20:26:27 4,3 C 59,0%
21.09.2021 20:23:26 4,4 C 64,0%
21.09.2021 20:19:31 4,5 C 69,0%
21.09.2021 20:12:29 4,4 C 70,0%
21.09.2021 20:05:27 4,1 C 68,0%
21.09.2021 19:58:27 3,9 C 66,0%
21.09.2021 19:51:25 3,7 C 63,0%
21.09.2021 19:44:23 3,5 C 58,0%
21.09.2021 19:39:28 3,5 C 53,0%
21.09.2021 19:32:27 3,7 C 48,0%
21.09.2021 19:25:23 4,1 C 53,0%
21.09.2021 19:21:53 4,3 C 58,0%
21.09.2021 19:18:35 4,5 C 63,0%
21.09.2021 19:15:10 4,6 C 68,0%
21.09.2021 19:08:09 4,4 C 71,0%
21.09.2021 19:01:07 4,2 C 69,0%
21.09.2021 18:54:05 3,9 C 67,0%
21.09.2021 18:47:03 3,7 C 64,0%
21.09.2021 18:40:02 3,6 C 60,0%
21.09.2021 18:34:54 3,5 C 55,0%
21.09.2021 18:28:45 3,6 C 49,0%
21.09.2021 18:21:44 4,0 C 51,0%
21.09.2021 18:17:49 4,2 C 56,0%
21.09.2021 18:14:42 4,4 C 61,0%
21.09.2021 18:11:06 4,5 C 67,0%
21.09.2021 18:05:46 4,5 C 72,0%
21.09.2021 17:58:42 4,3 C 70,0%
21.09.2021 17:51:40 4,0 C 68,0%
21.09.2021 17:44:36 3,8 C 66,0%
21.09.2021 17:37:33 3,6 C 63,0%
21.09.2021 17:31:01 3,5 C 58,0%
21.09.2021 17:25:41 3,5 C 53,0%
21.09.2021 17:18:41 3,8 C 51,0%
21.09.2021 17:14:22 4,1 C 56,0%
21.09.2021 17:11:22 4,3 C 61,0%
21.09.2021 17:08:33 4,5 C 67,0%
21.09.2021 17:05:39 4,6 C 72,0%
21.09.2021 17:00:31 4,6 C 77,0%
21.09.2021 16:53:30 4,5 C 78,0%
21.09.2021 16:46:28 4,0 C 75,0%
21.09.2021 16:45:41 3,9 C 70,0%
21.09.2021 16:41:09 3,7 C 64,0%
21.09.2021 16:34:08 3,5 C 60,0%
21.09.2021 16:28:55 3,5 C 55,0%
21.09.2021 16:23:12 3,5 C 50,0%
21.09.2021 16:16:09 3,8 C 49,0%
21.09.2021 16:11:25 4,1 C 54,0%
21.09.2021 16:08:19 4,3 C 59,0%
21.09.2021 16:05:12 4,4 C 64,0%
21.09.2021 16:01:10 4,5 C 70,0%
21.09.2021 15:54:08 4,3 C 70,0%
21.09.2021 15:47:05 4,1 C 68,0%
21.09.2021 15:40:05 3,8 C 66,0%
21.09.2021 15:33:01 3,7 C 63,0%
21.09.2021 15:25:58 3,5 C 58,0%
21.09.2021 15:21:03 3,5 C 53,0%
21.09.2021 15:14:41 3,6 C 48,0%
21.09.2021 15:07:41 4,0 C 52,0%
21.09.2021 15:04:10 4,2 C 57,0%
21.09.2021 15:00:45 4,3 C 63,0%
21.09.2021 14:57:08 4,5 C 68,0%
21.09.2021 14:50:06 4,3 C 71,0%
21.09.2021 14:43:04 4,1 C 69,0%
21.09.2021 14:36:01 3,9 C 67,0%
21.09.2021 14:28:58 3,7 C 64,0%
21.09.2021 14:21:58 3,5 C 60,0%
21.09.2021 14:16:44 3,5 C 55,0%
21.09.2021 14:10:37 3,5 C 50,0%
21.09.2021 14:03:36 3,9 C 51,0%
21.09.2021 13:59:40 4,1 C 56,0%
21.09.2021 13:56:34 4,3 C 61,0%
21.09.2021 13:53:08 4,4 C 66,0%
21.09.2021 13:46:25 4,4 C 71,0%
21.09.2021 13:39:23 4,1 C 70,0%
21.09.2021 13:32:20 3,9 C 68,0%
21.09.2021 13:25:19 3,7 C 66,0%
21.09.2021 13:18:18 3,5 C 62,0%
21.09.2021 13:12:33 3,4 C 57,0%
21.09.2021 13:07:44 3,4 C 52,0%
21.09.2021 13:00:40 3,7 C 49,0%
21.09.2021 12:55:15 4,0 C 54,0%
21.09.2021 12:51:50 4,2 C 59,0%
21.09.2021 12:48:44 4,3 C 64,0%
21.09.2021 12:44:49 4,4 C 70,0%
21.09.2021 12:37:47 4,3 C 71,0%
21.09.2021 12:30:45 4,0 C 69,0%
21.09.2021 12:23:44 3,8 C 67,0%
21.09.2021 12:16:43 3,6 C 65,0%
21.09.2021 12:09:42 3,4 C 60,0%
21.09.2021 12:04:23 3,4 C 55,0%
21.09.2021 11:58:03 3,5 C 50,0%
21.09.2021 11:51:01 3,9 C 53,0%
21.09.2021 11:47:18 4,1 C 58,0%
21.09.2021 11:43:53 4,3 C 63,0%
21.09.2021 11:40:16 4,4 C 68,0%
21.09.2021 11:33:14 4,3 C 71,0%
21.09.2021 11:26:11 4,0 C 70,0%
21.09.2021 11:19:08 3,8 C 68,0%
21.09.2021 11:12:06 3,6 C 66,0%
21.09.2021 11:05:02 3,5 C 62,0%
21.09.2021 10:59:42 3,3 C 57,0%
21.09.2021 10:54:12 3,4 C 52,0%
21.09.2021 10:47:09 3,7 C 50,0%
21.09.2021 10:42:55 4,0 C 55,0%
21.09.2021 10:39:37 4,2 C 61,0%
21.09.2021 10:36:30 4,3 C 66,0%
21.09.2021 10:32:16 4,4 C 71,0%
21.09.2021 10:25:14 4,2 C 71,0%
21.09.2021 10:18:13 4,0 C 70,0%
21.09.2021 10:11:12 3,7 C 68,0%
21.09.2021 10:04:11 3,5 C 65,0%
21.09.2021 09:57:08 3,4 C 61,0%
21.09.2021 09:51:48 3,3 C 55,0%
21.09.2021 09:46:10 3,4 C 50,0%
21.09.2021 09:39:09 3,8 C 52,0%
21.09.2021 09:35:26 4,0 C 57,0%
21.09.2021 09:32:08 4,2 C 63,0%
21.09.2021 09:28:49 4,3 C 68,0%
21.09.2021 09:21:46 4,2 C 72,0%
21.09.2021 09:14:44 4,0 C 70,0%
21.09.2021 09:07:43 3,8 C 69,0%
21.09.2021 09:00:40 3,6 C 67,0%
21.09.2021 08:53:39 3,4 C 63,0%
21.09.2021 08:47:19 3,3 C 58,0%
21.09.2021 08:42:23 3,3 C 53,0%
21.09.2021 08:35:20 3,6 C 50,0%
21.09.2021 08:30:42 3,8 C 55,0%
21.09.2021 08:27:23 4,0 C 61,0%
21.09.2021 08:24:16 4,2 C 66,0%
21.09.2021 08:19:56 4,3 C 71,0%
21.09.2021 08:12:54 4,1 C 72,0%
21.09.2021 08:05:52 3,9 C 70,0%
21.09.2021 07:58:49 3,7 C 68,0%
21.09.2021 07:51:46 3,5 C 66,0%
21.09.2021 07:44:44 3,3 C 61,0%
21.09.2021 07:39:19 3,3 C 56,0%
21.09.2021 07:32:58 3,4 C 51,0%
21.09.2021 07:25:56 3,8 C 55,0%
21.09.2021 07:22:26 4,0 C 60,0%
21.09.2021 07:19:19 4,2 C 65,0%
21.09.2021 07:15:37 4,3 C 70,0%
21.09.2021 07:08:34 4,2 C 73,0%
21.09.2021 07:01:32 3,9 C 71,0%
21.09.2021 06:54:32 3,7 C 69,0%
21.09.2021 06:47:29 3,5 C 67,0%
21.09.2021 06:40:28 3,4 C 63,0%
21.09.2021 06:34:14 3,3 C 58,0%
21.09.2021 06:28:43 3,3 C 53,0%
21.09.2021 06:21:42 3,7 C 54,0%
21.09.2021 06:17:28 3,9 C 59,0%
21.09.2021 06:14:22 4,1 C 64,0%
21.09.2021 06:10:46 4,3 C 69,0%
21.09.2021 06:05:13 4,3 C 74,0%
21.09.2021 05:58:11 4,0 C 73,0%
21.09.2021 05:51:10 3,8 C 71,0%
21.09.2021 05:44:09 3,7 C 71,0%
21.09.2021 05:37:07 3,5 C 70,0%
21.09.2021 05:30:04 3,4 C 71,0%
21.09.2021 05:28:03 3,3 C 58,0%
21.09.2021 05:22:33 3,5 C 50,0%
21.09.2021 05:17:00 3,9 C 55,0%
21.09.2021 05:13:42 4,1 C 61,0%
21.09.2021 05:10:35 4,2 C 66,0%
21.09.2021 05:06:17 4,3 C 71,0%
21.09.2021 04:59:16 4,2 C 72,0%
21.09.2021 04:52:20 4,0 C 70,0%
21.09.2021 04:45:12 3,7 C 68,0%
21.09.2021 04:38:11 3,5 C 66,0%
21.09.2021 04:31:10 3,4 C 61,0%
21.09.2021 04:25:51 3,4 C 56,0%
21.09.2021 04:20:08 3,5 C 51,0%
21.09.2021 04:13:07 3,8 C 54,0%
21.09.2021 04:09:17 4,1 C 59,0%
21.09.2021 04:06:10 4,3 C 64,0%
21.09.2021 04:02:27 4,4 C 69,0%
21.09.2021 03:55:24 4,3 C 72,0%
21.09.2021 03:48:21 4,0 C 70,0%
21.09.2021 03:41:18 3,8 C 68,0%
21.09.2021 03:34:15 3,6 C 66,0%
21.09.2021 03:27:13 3,5 C 62,0%
21.09.2021 03:21:47 3,4 C 57,0%
21.09.2021 03:16:28 3,5 C 52,0%
21.09.2021 03:09:27 3,8 C 53,0%
21.09.2021 03:05:38 4,1 C 58,0%
21.09.2021 03:02:07 4,3 C 63,0%
21.09.2021 02:58:37 4,4 C 68,0%
21.09.2021 02:51:36 4,3 C 72,0%
21.09.2021 02:44:35 4,1 C 70,0%
21.09.2021 02:37:31 3,9 C 68,0%
21.09.2021 02:30:29 3,7 C 66,0%
21.09.2021 02:23:26 3,5 C 62,0%
21.09.2021 02:17:54 3,5 C 57,0%
21.09.2021 02:12:45 3,5 C 52,0%
21.09.2021 02:05:44 3,9 C 52,0%
21.09.2021 02:01:42 4,2 C 57,0%
21.09.2021 01:58:24 4,3 C 62,0%
21.09.2021 01:54:30 4,5 C 68,0%
21.09.2021 01:47:26 4,5 C 72,0%
21.09.2021 01:40:25 4,2 C 70,0%
21.09.2021 01:33:23 4,0 C 69,0%
21.09.2021 01:26:23 3,8 C 66,0%
21.09.2021 01:19:19 3,7 C 63,0%
21.09.2021 01:13:42 3,6 C 57,0%
21.09.2021 01:08:39 3,6 C 52,0%
21.09.2021 01:01:37 3,9 C 51,0%
21.09.2021 00:57:30 4,2 C 56,0%
21.09.2021 00:54:05 4,4 C 61,0%
21.09.2021 00:50:22 4,6 C 67,0%
21.09.2021 00:46:04 4,6 C 72,0%
21.09.2021 00:39:01 4,4 C 71,0%
21.09.2021 00:31:58 4,2 C 69,0%
21.09.2021 00:24:56 4,0 C 67,0%
21.09.2021 00:17:55 3,8 C 64,0%
21.09.2021 00:11:47 3,7 C 59,0%
21.09.2021 00:06:28 3,7 C 54,0%